Time,TemperatureF,DewpointF,PressureIn,WindDirection,WindDirectionDegrees,WindSpeedMPH,WindSpeedGustMPH,Humidity,HourlyPrecipIn,Conditions,Clouds,dailyrainin,SoftwareType,DateUTC
2013-11-03 00:01:00,53.8,43.9,30.26,NNE,14,0.0,0.0,69,0.00,,CLR,0.00,VWS V14.01,2013-11-03 05:01:00,
2013-11-03 00:06:00,53.6,43.7,30.26,NNE,14,0.0,0.0,69,0.00,,CLR,0.00,VWS V14.01,2013-11-03 05:06:00,
2013-11-03 00:11:00,53.5,43.6,30.26,NNE,14,0.0,0.0,69,0.00,,CLR,0.00,VWS V14.01,2013-11-03 05:11:00,
2013-11-03 00:16:00,53.3,43.8,30.26,NNE,14,0.0,0.0,70,0.00,,CLR,0.00,VWS V14.01,2013-11-03 05:16:00,
2013-11-03 00:21:00,53.2,43.3,30.26,NNE,14,0.0,0.0,69,0.00,,CLR,0.00,VWS V14.01,2013-11-03 05:21:00,
2013-11-03 00:26:00,53.1,43.2,30.26,NNE,14,0.0,0.0,69,0.00,,CLR,0.00,VWS V14.01,2013-11-03 05:26:00,
2013-11-03 00:31:00,52.9,43.4,30.26,NNE,14,0.0,0.0,70,0.00,,CLR,0.00,VWS V14.01,2013-11-03 05:31:00,
2013-11-03 00:36:00,52.8,43.7,30.26,NNE,14,0.0,0.0,71,0.00,,CLR,0.00,VWS V14.01,2013-11-03 05:36:00,
2013-11-03 00:41:00,52.6,43.5,30.26,NNE,14,0.0,0.0,71,0.00,,CLR,0.00,VWS V14.01,2013-11-03 05:41:00,
2013-11-03 00:46:00,52.5,43.4,30.26,NNE,14,0.0,0.0,71,0.00,,CLR,0.00,VWS V14.01,2013-11-03 05:46:00,
2013-11-03 00:51:00,52.3,43.2,30.26,NNE,14,0.0,0.0,71,0.00,,CLR,0.00,VWS V14.01,2013-11-03 05:51:00,
2013-11-03 00:56:00,52.2,43.1,30.26,NNE,14,0.0,0.0,71,0.00,,CLR,0.00,VWS V14.01,2013-11-03 05:56:00,
2013-11-03 01:01:00,52.2,43.1,30.26,NNE,14,0.0,0.0,71,0.00,,CLR,0.00,VWS V14.01,2013-11-03 06:01:00,
2013-11-03 01:06:00,52.2,43.1,30.26,NNE,13,0.0,0.0,71,0.00,,CLR,0.00,VWS V14.01,2013-11-03 06:06:00,
2013-11-03 01:11:00,52.3,43.2,30.26,NNE,14,0.0,0.0,71,0.00,,CLR,0.00,VWS V14.01,2013-11-03 06:11:00,
2013-11-03 01:16:00,52.5,43.0,30.26,NNE,13,0.0,3.0,70,0.00,,CLR,0.00,VWS V14.01,2013-11-03 06:16:00,
2013-11-03 01:21:00,52.5,43.4,30.25,NNE,14,0.0,2.0,71,0.00,,CLR,0.00,VWS V14.01,2013-11-03 06:21:00,
2013-11-03 01:26:00,52.5,43.4,30.25,NNE,13,0.0,2.0,71,0.00,,CLR,0.00,VWS V14.01,2013-11-03 06:26:00,
2013-11-03 01:30:00,52.3,43.5,30.25,NNE,13,0.0,0.0,72,0.00,,CLR,0.00,VWS V14.01,2013-11-03 06:30:00,
2013-11-03 01:35:00,52.3,43.5,30.25,NNE,13,0.0,0.0,72,0.00,,CLR,0.00,VWS V14.01,2013-11-03 06:35:00,
2013-11-03 01:40:00,52.2,43.8,30.25,NNE,14,0.0,0.0,73,0.00,,CLR,0.00,VWS V14.01,2013-11-03 06:40:00,
2013-11-03 01:45:00,52.0,43.6,30.25,NNE,14,0.0,0.0,73,0.00,,CLR,0.00,VWS V14.01,2013-11-03 06:45:00,
2013-11-03 01:50:00,51.7,43.3,30.25,NNE,13,0.0,0.0,73,0.00,,CLR,0.00,VWS V14.01,2013-11-03 06:50:00,
2013-11-03 01:55:00,51.7,43.3,30.24,NNE,13,0.0,0.0,73,0.00,,CLR,0.00,VWS V14.01,2013-11-03 06:55:00,
2013-11-03 01:00:00,51.6,43.2,30.24,NNE,13,0.0,0.0,73,0.00,,CLR,0.00,VWS V14.01,2013-11-03 07:00:00,
2013-11-03 01:05:00,51.4,42.7,30.24,NNE,14,0.0,0.0,72,0.00,,CLR,0.00,VWS V14.01,2013-11-03 07:05:00,
2013-11-03 01:10:00,51.3,43.3,30.24,NNE,13,0.0,0.0,74,0.00,,CLR,0.00,VWS V14.01,2013-11-03 07:10:00,
2013-11-03 01:15:00,51.0,43.0,30.24,NNE,14,0.0,0.0,74,0.00,,CLR,0.00,VWS V14.01,2013-11-03 07:15:00,
2013-11-03 01:20:00,50.8,43.5,30.24,NNE,14,0.0,0.0,76,0.00,,CLR,0.00,VWS V14.01,2013-11-03 07:20:00,
2013-11-03 01:25:00,50.7,43.4,30.24,NNE,14,0.0,0.0,76,0.00,,CLR,0.00,VWS V14.01,2013-11-03 07:25:00,
2013-11-03 01:30:00,50.5,43.6,30.24,NNE,13,0.0,0.0,77,0.00,,CLR,0.00,VWS V14.01,2013-11-03 07:30:00,
2013-11-03 01:35:00,50.4,43.5,30.24,NNE,13,0.0,0.0,77,0.00,,CLR,0.00,VWS V14.01,2013-11-03 07:35:00,
2013-11-03 01:40:00,50.2,43.3,30.24,NNE,14,0.0,0.0,77,0.00,,CLR,0.00,VWS V14.01,2013-11-03 07:40:00,
2013-11-03 01:45:00,50.1,43.2,30.24,NNE,14,0.0,0.0,77,0.00,,CLR,0.00,VWS V14.01,2013-11-03 07:45:00,
2013-11-03 01:50:00,49.9,43.0,30.24,NNE,14,0.0,0.0,77,0.00,,CLR,0.00,VWS V14.01,2013-11-03 07:50:00,
2013-11-03 01:55:00,49.8,42.9,30.23,NNE,13,0.0,0.0,77,0.00,,CLR,0.00,VWS V14.01,2013-11-03 07:55:00,
2013-11-03 02:00:00,49.8,42.9,30.23,NNE,13,0.0,0.0,77,0.00,,CLR,0.00,VWS V14.01,2013-11-03 08:00:00,
2013-11-03 02:05:00,49.6,42.7,30.23,NNE,13,0.0,0.0,77,0.00,,CLR,0.00,VWS V14.01,2013-11-03 08:05:00,
2013-11-03 02:10:00,49.6,42.7,30.23,NNE,14,0.0,0.0,77,0.00,,CLR,0.00,VWS V14.01,2013-11-03 08:10:00,
2013-11-03 02:15:00,49.5,42.3,30.23,NNE,13,0.0,0.0,76,0.00,,CLR,0.00,VWS V14.01,2013-11-03 08:15:00,
2013-11-03 02:20:00,49.4,42.2,30.23,NNE,14,0.0,0.0,76,0.00,,CLR,0.00,VWS V14.01,2013-11-03 08:20:00,
2013-11-03 02:25:00,49.4,42.2,30.22,NNE,14,0.0,0.0,76,0.00,,CLR,0.00,VWS V14.01,2013-11-03 08:25:00,
2013-11-03 02:30:00,49.5,42.6,30.22,NNE,14,0.0,0.0,77,0.00,,CLR,0.00,VWS V14.01,2013-11-03 08:30:00,
2013-11-03 02:35:00,49.4,42.5,30.22,NNE,14,0.0,0.0,77,0.00,,CLR,0.00,VWS V14.01,2013-11-03 08:35:00,
2013-11-03 02:40:00,49.5,42.6,30.22,NNE,13,0.0,0.0,77,0.00,,CLR,0.00,VWS V14.01,2013-11-03 08:40:00,
2013-11-03 02:45:00,49.4,42.2,30.22,NNE,14,0.0,0.0,76,0.00,,CLR,0.00,VWS V14.01,2013-11-03 08:45:00,
2013-11-03 02:50:00,49.4,42.2,30.22,NNE,14,0.0,0.0,76,0.00,,CLR,0.00,VWS V14.01,2013-11-03 08:50:00,
2013-11-03 02:55:00,49.5,41.9,30.21,NNE,13,0.0,0.0,75,0.00,,CLR,0.00,VWS V14.01,2013-11-03 08:55:00,
2013-11-03 03:00:00,49.5,41.9,30.21,NNE,13,0.0,0.0,75,0.00,,CLR,0.00,VWS V14.01,2013-11-03 09:00:00,
2013-11-03 03:05:00,49.5,41.9,30.21,NNE,14,0.0,0.0,75,0.00,,CLR,0.00,VWS V14.01,2013-11-03 09:05:00,
2013-11-03 03:10:00,49.5,41.9,30.21,NNE,13,0.0,0.0,75,0.00,,CLR,0.00,VWS V14.01,2013-11-03 09:10:00,
2013-11-03 03:15:00,49.5,41.9,30.21,NNE,14,0.0,0.0,75,0.00,,CLR,0.00,VWS V14.01,2013-11-03 09:15:00,
2013-11-03 03:20:00,49.4,41.8,30.21,NNE,14,0.0,0.0,75,0.00,,CLR,0.00,VWS V14.01,2013-11-03 09:20:00,
2013-11-03 03:25:00,49.4,41.8,30.21,NNE,13,0.0,0.0,75,0.00,,CLR,0.00,VWS V14.01,2013-11-03 09:25:00,
2013-11-03 03:30:00,49.4,41.8,30.21,NNE,14,0.0,0.0,75,0.00,,CLR,0.00,VWS V14.01,2013-11-03 09:30:00,
2013-11-03 03:35:00,49.2,41.6,30.21,NNE,13,0.0,0.0,75,0.00,,CLR,0.00,VWS V14.01,2013-11-03 09:35:00,
2013-11-03 03:40:00,48.9,42.0,30.21,NNE,14,0.0,0.0,77,0.00,,CLR,0.00,VWS V14.01,2013-11-03 09:40:00,
2013-11-03 03:45:00,48.6,42.4,30.21,NNE,13,0.0,0.0,79,0.00,,CLR,0.00,VWS V14.01,2013-11-03 09:45:00,
2013-11-03 03:50:00,48.2,42.0,30.21,NNE,13,0.0,0.0,79,0.00,,CLR,0.00,VWS V14.01,2013-11-03 09:50:00,
2013-11-03 03:55:00,48.0,42.1,30.21,NNE,13,0.0,0.0,80,0.00,,CLR,0.00,VWS V14.01,2013-11-03 09:55:00,
2013-11-03 04:00:00,47.9,42.0,30.21,NNE,13,0.0,0.0,80,0.00,,CLR,0.00,VWS V14.01,2013-11-03 10:00:00,
2013-11-03 04:05:00,47.7,41.8,30.21,NNE,13,0.0,0.0,80,0.00,,CLR,0.00,VWS V14.01,2013-11-03 10:05:00,
2013-11-03 04:10:00,47.6,41.8,30.21,NNE,13,0.0,0.0,80,0.00,,CLR,0.00,VWS V14.01,2013-11-03 10:10:00,
2013-11-03 04:15:00,47.6,42.1,30.21,NNE,13,0.0,0.0,81,0.00,,CLR,0.00,VWS V14.01,2013-11-03 10:15:00,
2013-11-03 04:20:00,47.4,41.9,30.21,NNE,14,0.0,0.0,81,0.00,,CLR,0.00,VWS V14.01,2013-11-03 10:20:00,
2013-11-03 04:25:00,47.3,41.8,30.20,NNE,13,0.0,0.0,81,0.00,,CLR,0.00,VWS V14.01,2013-11-03 10:25:00,
2013-11-03 04:30:00,47.3,41.8,30.20,NNE,13,0.0,0.0,81,0.00,,CLR,0.00,VWS V14.01,2013-11-03 10:30:00,
2013-11-03 04:35:00,47.3,41.8,30.20,NNE,13,0.0,0.0,81,0.00,,CLR,0.00,VWS V14.01,2013-11-03 10:35:00,
2013-11-03 04:40:00,47.3,41.8,30.21,NNE,13,0.0,0.0,81,0.00,,CLR,0.00,VWS V14.01,2013-11-03 10:40:00,
2013-11-03 04:45:00,47.3,41.8,30.21,NNE,13,0.0,0.0,81,0.00,,CLR,0.00,VWS V14.01,2013-11-03 10:45:00,
2013-11-03 04:50:00,47.3,41.8,30.21,NNE,13,0.0,0.0,81,0.00,,CLR,0.00,VWS V14.01,2013-11-03 10:50:00,
2013-11-03 04:55:00,46.8,41.6,30.19,NNE,13,0.0,0.0,82,0.00,,CLR,0.00,VWS V14.01,2013-11-03 10:55:00,
2013-11-03 05:00:00,46.7,41.5,30.19,NNE,13,0.0,0.0,82,0.00,,CLR,0.00,VWS V14.01,2013-11-03 11:00:00,
2013-11-03 05:05:00,46.5,41.3,30.19,NNE,13,0.0,0.0,82,0.00,,CLR,0.00,VWS V14.01,2013-11-03 11:05:00,
2013-11-03 05:10:00,46.2,41.0,30.20,NNE,13,0.0,0.0,82,0.00,,CLR,0.00,VWS V14.01,2013-11-03 11:10:00,
2013-11-03 05:15:00,46.1,41.2,30.20,NNE,13,0.0,0.0,83,0.00,,CLR,0.00,VWS V14.01,2013-11-03 11:15:00,
2013-11-03 05:20:00,45.8,40.9,30.20,NNE,13,0.0,0.0,83,0.00,,CLR,0.00,VWS V14.01,2013-11-03 11:20:00,
2013-11-03 05:25:00,45.7,40.8,30.21,NNE,13,0.0,0.0,83,0.00,,CLR,0.00,VWS V14.01,2013-11-03 11:25:00,
2013-11-03 05:30:00,45.5,41.0,30.21,NNE,13,0.0,0.0,84,0.00,,CLR,0.00,VWS V14.01,2013-11-03 11:30:00,
2013-11-03 05:35:00,45.5,41.0,30.21,NNE,13,0.0,0.0,84,0.00,,CLR,0.00,VWS V14.01,2013-11-03 11:35:00,
2013-11-03 05:40:00,45.4,40.9,30.21,NNE,13,0.0,0.0,84,0.00,,CLR,0.00,VWS V14.01,2013-11-03 11:40:00,
2013-11-03 05:45:00,45.2,40.7,30.21,NNE,13,0.0,0.0,84,0.00,,CLR,0.00,VWS V14.01,2013-11-03 11:45:00,
2013-11-03 05:50:00,45.1,40.6,30.21,NNE,13,0.0,0.0,84,0.00,,CLR,0.00,VWS V14.01,2013-11-03 11:50:00,
2013-11-03 05:55:00,45.1,40.6,30.22,NNE,13,0.0,0.0,84,0.00,,CLR,0.00,VWS V14.01,2013-11-03 11:55:00,
2013-11-03 06:00:00,45.1,40.6,30.22,NNE,13,0.0,0.0,84,0.00,,CLR,0.00,VWS V14.01,2013-11-03 12:00:00,
2013-11-03 06:05:00,44.9,40.4,30.22,NNE,13,0.0,0.0,84,0.00,,CLR,0.00,VWS V14.01,2013-11-03 12:05:00,
2013-11-03 06:10:00,44.9,40.7,30.22,NNE,14,0.0,0.0,85,0.00,,CLR,0.00,VWS V14.01,2013-11-03 12:10:00,
2013-11-03 06:15:00,45.1,40.9,30.22,NNE,13,0.0,0.0,85,0.00,,CLR,0.00,VWS V14.01,2013-11-03 12:15:00,
2013-11-03 06:20:00,45.2,40.7,30.22,NNE,13,0.0,0.0,84,0.00,,CLR,0.00,VWS V14.01,2013-11-03 12:20:00,
2013-11-03 06:25:00,45.4,40.9,30.22,NNE,13,0.0,0.0,84,0.00,,CLR,0.00,VWS V14.01,2013-11-03 12:25:00,
2013-11-03 06:30:00,45.5,41.0,30.22,NNE,13,0.0,0.0,84,0.00,,CLR,0.00,VWS V14.01,2013-11-03 12:30:00,
2013-11-03 06:35:00,45.7,40.8,30.22,NNE,14,0.0,0.0,83,0.00,,CLR,0.00,VWS V14.01,2013-11-03 12:35:00,
2013-11-03 06:40:00,45.7,40.8,30.22,NNE,13,0.0,0.0,83,0.00,,CLR,0.00,VWS V14.01,2013-11-03 12:40:00,
2013-11-03 06:45:00,45.7,40.8,30.22,NNE,13,0.0,0.0,83,0.00,,CLR,0.00,VWS V14.01,2013-11-03 12:45:00,
2013-11-03 06:50:00,45.7,40.8,30.22,NNE,14,0.0,0.0,83,0.00,,CLR,0.00,VWS V14.01,2013-11-03 12:50:00,
2013-11-03 06:55:00,45.7,40.8,30.22,NNE,14,0.0,0.0,83,0.00,,CLR,0.00,VWS V14.01,2013-11-03 12:55:00,
2013-11-03 07:00:00,45.8,40.9,30.22,NNE,14,0.0,0.0,83,0.00,,CLR,0.00,VWS V14.01,2013-11-03 13:00:00,
2013-11-03 07:05:00,45.8,40.6,30.22,NNE,14,0.0,0.0,82,0.00,,CLR,0.00,VWS V14.01,2013-11-03 13:05:00,
2013-11-03 07:10:00,46.2,41.0,30.21,NNE,14,0.0,0.0,82,0.00,,CLR,0.00,VWS V14.01,2013-11-03 13:10:00,
2013-11-03 07:15:00,46.7,41.2,30.21,NNE,14,0.0,0.0,81,0.00,,CLR,0.00,VWS V14.01,2013-11-03 13:15:00,
2013-11-03 07:20:00,47.1,40.9,30.21,NNE,14,0.0,0.0,79,0.00,,CLR,0.00,VWS V14.01,2013-11-03 13:20:00,
2013-11-03 07:25:00,47.9,41.0,30.21,NNE,14,0.0,2.0,77,0.00,,CLR,0.00,VWS V14.01,2013-11-03 13:25:00,
2013-11-03 07:30:00,48.6,41.0,30.21,NNE,14,0.0,0.0,75,0.00,,CLR,0.00,VWS V14.01,2013-11-03 13:30:00,
2013-11-03 07:35:00,49.4,41.1,30.21,NNE,14,0.0,0.0,73,0.00,,CLR,0.00,VWS V14.01,2013-11-03 13:35:00,
2013-11-03 07:40:00,49.9,40.9,30.21,NNE,14,0.0,0.0,71,0.00,,CLR,0.00,VWS V14.01,2013-11-03 13:40:00,
2013-11-03 07:45:00,50.5,41.1,30.21,NNE,14,0.0,0.0,70,0.00,,CLR,0.00,VWS V14.01,2013-11-03 13:45:00,
2013-11-03 07:50:00,51.0,41.2,30.21,NNE,14,0.0,0.0,69,0.00,,CLR,0.00,VWS V14.01,2013-11-03 13:50:00,
2013-11-03 07:55:00,51.6,41.4,30.22,NNE,14,0.0,0.0,68,0.00,,CLR,0.00,VWS V14.01,2013-11-03 13:55:00,
2013-11-03 08:00:00,52.2,41.2,30.22,NE,41,0.0,1.0,66,0.00,,CLR,0.00,VWS V14.01,2013-11-03 14:00:00,
2013-11-03 08:05:00,52.8,41.0,30.22,NE,41,0.0,1.0,64,0.00,,CLR,0.00,VWS V14.01,2013-11-03 14:05:00,
2013-11-03 08:10:00,53.6,40.9,30.22,NE,41,0.0,0.0,62,0.00,,CLR,0.00,VWS V14.01,2013-11-03 14:10:00,
2013-11-03 08:15:00,54.5,40.0,30.22,East,85,0.0,2.0,58,0.00,,CLR,0.00,VWS V14.01,2013-11-03 14:15:00,
2013-11-03 08:20:00,54.8,39.9,30.22,East,86,0.0,2.0,57,0.00,,CLR,0.00,VWS V14.01,2013-11-03 14:20:00,
2013-11-03 08:25:00,55.1,40.2,30.23,East,90,0.0,4.0,57,0.00,,CLR,0.00,VWS V14.01,2013-11-03 14:25:00,
2013-11-03 08:30:00,55.4,40.4,30.23,East,95,2.0,4.0,57,0.00,,CLR,0.00,VWS V14.01,2013-11-03 14:30:00,
2013-11-03 08:35:00,55.4,40.9,30.23,East,89,0.0,5.0,58,0.00,,CLR,0.00,VWS V14.01,2013-11-03 14:35:00,
2013-11-03 08:40:00,55.6,40.6,30.23,ESE,105,1.0,6.0,57,0.00,,CLR,0.00,VWS V14.01,2013-11-03 14:40:00,
2013-11-03 08:45:00,55.7,41.2,30.23,East,92,0.0,6.0,58,0.00,,CLR,0.00,VWS V14.01,2013-11-03 14:45:00,
2013-11-03 08:50:00,56.2,41.2,30.23,ESE,119,2.0,5.0,57,0.00,,CLR,0.00,VWS V14.01,2013-11-03 14:50:00,
2013-11-03 08:55:00,56.5,41.5,30.23,ESE,121,4.0,9.0,57,0.00,,CLR,0.00,VWS V14.01,2013-11-03 14:55:00,
2013-11-03 09:00:00,56.7,41.7,30.23,ESE,119,1.0,6.0,57,0.00,,CLR,0.00,VWS V14.01,2013-11-03 15:00:00,
2013-11-03 09:05:00,57.0,41.5,30.23,East,100,0.0,6.0,56,0.00,,CLR,0.00,VWS V14.01,2013-11-03 15:05:00,
2013-11-03 09:10:00,57.5,41.9,30.23,SE,130,5.0,6.0,56,0.00,,CLR,0.00,VWS V14.01,2013-11-03 15:10:00,
2013-11-03 09:15:00,57.6,42.0,30.23,SSE,151,2.0,7.0,56,0.00,,CLR,0.00,VWS V14.01,2013-11-03 15:15:00,
2013-11-03 09:20:00,58.1,42.5,30.23,ESE,115,2.0,6.0,56,0.00,,CLR,0.00,VWS V14.01,2013-11-03 15:20:00,
2013-11-03 09:25:00,58.9,43.2,30.23,SE,126,5.0,6.0,56,0.00,,CLR,0.00,VWS V14.01,2013-11-03 15:25:00,
2013-11-03 09:30:00,59.2,43.1,30.23,East,96,1.0,6.0,55,0.00,,CLR,0.00,VWS V14.01,2013-11-03 15:30:00,
2013-11-03 09:35:00,59.6,42.5,30.23,SSW,197,6.0,6.0,53,0.00,,CLR,0.00,VWS V14.01,2013-11-03 15:35:00,
2013-11-03 09:40:00,60.1,42.4,30.23,SE,130,10.0,11.0,52,0.00,,CLR,0.00,VWS V14.01,2013-11-03 15:40:00,
2013-11-03 09:45:00,60.1,40.4,30.23,SE,134,6.0,16.0,48,0.00,,CLR,0.00,VWS V14.01,2013-11-03 15:45:00,
2013-11-03 09:50:00,60.5,40.2,30.23,ESE,104,7.0,12.0,47,0.00,,CLR,0.00,VWS V14.01,2013-11-03 15:50:00,
2013-11-03 09:55:00,60.9,40.5,30.22,ESE,115,0.0,12.0,47,0.00,,CLR,0.00,VWS V14.01,2013-11-03 15:55:00,
2013-11-03 10:00:00,61.6,41.2,30.22,ESE,117,4.0,7.0,47,0.00,,CLR,0.00,VWS V14.01,2013-11-03 16:00:00,
2013-11-03 10:05:00,61.8,39.7,30.22,SSE,153,7.0,10.0,44,0.00,,CLR,0.00,VWS V14.01,2013-11-03 16:05:00,
2013-11-03 10:10:00,62.1,40.5,30.23,ESE,109,5.0,7.0,45,0.00,,CLR,0.00,VWS V14.01,2013-11-03 16:10:00,
2013-11-03 10:15:00,62.3,38.3,30.23,ENE,71,6.0,12.0,41,0.00,,CLR,0.00,VWS V14.01,2013-11-03 16:15:00,
2013-11-03 10:20:00,62.6,39.2,30.23,East,96,4.0,10.0,42,0.00,,CLR,0.00,VWS V14.01,2013-11-03 16:20:00,
2013-11-03 10:25:00,62.7,38.0,30.22,ESE,113,5.0,14.0,40,0.00,,CLR,0.00,VWS V14.01,2013-11-03 16:25:00,
2013-11-03 10:30:00,63.1,38.4,30.22,East,82,7.0,9.0,40,0.00,,CLR,0.00,VWS V14.01,2013-11-03 16:30:00,
2013-11-03 10:35:00,63.5,38.1,30.22,SE,126,8.0,9.0,39,0.00,,CLR,0.00,VWS V14.01,2013-11-03 16:35:00,
2013-11-03 10:40:00,63.7,38.3,30.22,ESE,113,5.0,7.0,39,0.00,,CLR,0.00,VWS V14.01,2013-11-03 16:40:00,
2013-11-03 10:45:00,63.9,38.5,30.22,SSE,150,4.0,10.0,39,0.00,,CLR,0.00,VWS V14.01,2013-11-03 16:45:00,
2013-11-03 10:50:00,64.0,37.2,30.22,South,171,5.0,8.0,37,0.00,,CLR,0.00,VWS V14.01,2013-11-03 16:50:00,
2013-11-03 10:55:00,63.9,35.7,30.20,South,175,4.0,12.0,35,0.00,,CLR,0.00,VWS V14.01,2013-11-03 16:55:00,
2013-11-03 11:00:00,64.3,36.1,30.20,South,175,3.0,12.0,35,0.00,,CLR,0.00,VWS V14.01,2013-11-03 17:00:00,
2013-11-03 11:05:00,64.3,35.4,30.20,South,191,7.0,12.0,34,0.00,,CLR,0.00,VWS V14.01,2013-11-03 17:05:00,
2013-11-03 11:10:00,64.8,35.0,30.20,SE,128,5.0,7.0,33,0.00,,CLR,0.00,VWS V14.01,2013-11-03 17:10:00,
2013-11-03 11:15:00,65.2,35.4,30.20,ESE,105,0.0,10.0,33,0.00,,CLR,0.00,VWS V14.01,2013-11-03 17:15:00,
2013-11-03 11:20:00,65.8,35.9,30.20,SSE,159,1.0,6.0,33,0.00,,CLR,0.00,VWS V14.01,2013-11-03 17:20:00,
2013-11-03 11:25:00,65.6,34.2,30.20,SE,138,4.0,10.0,31,0.00,,CLR,0.00,VWS V14.01,2013-11-03 17:25:00,
2013-11-03 11:30:00,65.8,35.2,30.20,East,100,7.0,8.0,32,0.00,,CLR,0.00,VWS V14.01,2013-11-03 17:30:00,
2013-11-03 11:35:00,66.1,34.6,30.20,SE,129,4.0,8.0,31,0.00,,CLR,0.00,VWS V14.01,2013-11-03 17:35:00,
2013-11-03 11:40:00,66.6,34.2,30.19,ESE,113,4.0,9.0,30,0.00,,CLR,0.00,VWS V14.01,2013-11-03 17:40:00,
2013-11-03 11:45:00,66.9,34.5,30.19,ESE,121,1.0,9.0,30,0.00,,CLR,0.00,VWS V14.01,2013-11-03 17:45:00,
2013-11-03 11:50:00,67.4,35.7,30.19,ESE,121,0.0,0.0,31,0.00,,CLR,0.00,VWS V14.01,2013-11-03 17:50:00,
2013-11-03 11:55:00,67.6,35.1,30.18,ESE,107,0.0,7.0,30,0.00,,CLR,0.00,VWS V14.01,2013-11-03 17:55:00,
2013-11-03 12:00:00,67.8,35.3,30.18,ESE,109,0.0,4.0,30,0.00,,CLR,0.00,VWS V14.01,2013-11-03 18:00:00,
2013-11-03 12:05:00,67.9,35.3,30.18,ESE,109,0.0,4.0,30,0.00,,CLR,0.00,VWS V14.01,2013-11-03 18:05:00,
2013-11-03 12:10:00,68.3,35.7,30.18,SE,146,3.0,8.0,30,0.00,,CLR,0.00,VWS V14.01,2013-11-03 18:10:00,
2013-11-03 12:15:00,67.8,35.3,30.18,South,189,0.0,8.0,30,0.00,,CLR,0.00,VWS V14.01,2013-11-03 18:15:00,
2013-11-03 12:20:00,67.9,35.3,30.18,ESE,103,0.0,0.0,30,0.00,,CLR,0.00,VWS V14.01,2013-11-03 18:20:00,
2013-11-03 12:25:00,68.3,34.8,30.17,ESE,105,2.0,2.0,29,0.00,,CLR,0.00,VWS V14.01,2013-11-03 18:25:00,
2013-11-03 12:30:00,68.8,35.3,30.17,ESE,121,2.0,3.0,29,0.00,,CLR,0.00,VWS V14.01,2013-11-03 18:30:00,
2013-11-03 12:35:00,68.8,35.3,30.17,SE,135,5.0,9.0,29,0.00,,CLR,0.00,VWS V14.01,2013-11-03 18:35:00,
2013-11-03 12:40:00,68.6,36.0,30.16,SE,132,0.0,4.0,30,0.00,,CLR,0.00,VWS V14.01,2013-11-03 18:40:00,
2013-11-03 12:45:00,68.9,33.6,30.16,ESE,120,2.0,7.0,27,0.00,,CLR,0.00,VWS V14.01,2013-11-03 18:45:00,
2013-11-03 12:50:00,68.9,33.6,30.16,SE,133,0.0,7.0,27,0.00,,CLR,0.00,VWS V14.01,2013-11-03 18:50:00,
2013-11-03 12:55:00,68.9,33.6,30.14,East,81,0.0,7.0,27,0.00,,CLR,0.00,VWS V14.01,2013-11-03 18:55:00,
2013-11-03 13:00:00,69.3,33.9,30.14,ESE,119,0.0,6.0,27,0.00,,CLR,0.00,VWS V14.01,2013-11-03 19:00:00,
2013-11-03 13:05:00,69.8,34.3,30.14,East,96,4.0,6.0,27,0.00,,CLR,0.00,VWS V14.01,2013-11-03 19:05:00,
2013-11-03 13:10:00,69.9,34.4,30.13,ESE,109,0.0,6.0,27,0.00,,CLR,0.00,VWS V14.01,2013-11-03 19:10:00,
2013-11-03 13:15:00,69.6,34.2,30.13,SSE,168,0.0,11.0,27,0.00,,CLR,0.00,VWS V14.01,2013-11-03 19:15:00,
2013-11-03 13:20:00,69.6,34.2,30.13,East,94,0.0,4.0,27,0.00,,CLR,0.00,VWS V14.01,2013-11-03 19:20:00,
2013-11-03 13:25:00,70.1,33.7,30.12,ESE,117,2.0,9.0,26,0.00,,CLR,0.00,VWS V14.01,2013-11-03 19:25:00,
2013-11-03 13:30:00,69.9,33.5,30.12,East,99,2.0,6.0,26,0.00,,CLR,0.00,VWS V14.01,2013-11-03 19:30:00,
2013-11-03 13:35:00,70.3,34.8,30.12,SE,138,7.0,7.0,27,0.00,,CLR,0.00,VWS V14.01,2013-11-03 19:35:00,
2013-11-03 13:40:00,70.1,33.7,30.11,ESE,123,4.0,10.0,26,0.00,,CLR,0.00,VWS V14.01,2013-11-03 19:40:00,
2013-11-03 13:45:00,70.3,34.8,30.11,ESE,123,2.0,10.0,27,0.00,,CLR,0.00,VWS V14.01,2013-11-03 19:45:00,
2013-11-03 13:50:00,70.4,31.9,30.11,South,179,6.0,7.0,24,0.00,,CLR,0.00,VWS V14.01,2013-11-03 19:50:00,
2013-11-03 13:55:00,70.8,32.3,30.10,SSE,148,7.0,11.0,24,0.00,,CLR,0.00,VWS V14.01,2013-11-03 19:55:00,
2013-11-03 14:00:00,70.8,33.3,30.10,ESE,119,0.0,8.0,25,0.00,,CLR,0.00,VWS V14.01,2013-11-03 20:00:00,
2013-11-03 14:05:00,71.6,34.0,30.10,SE,136,11.0,11.0,25,0.00,,CLR,0.00,VWS V14.01,2013-11-03 20:05:00,
2013-11-03 14:10:00,71.5,32.8,30.09,ESE,107,2.0,6.0,24,0.00,,CLR,0.00,VWS V14.01,2013-11-03 20:10:00,
2013-11-03 14:15:00,71.5,32.8,30.09,ESE,122,2.0,13.0,24,0.00,,CLR,0.00,VWS V14.01,2013-11-03 20:15:00,
2013-11-03 14:20:00,71.8,33.1,30.09,ESE,106,4.0,7.0,24,0.00,,CLR,0.00,VWS V14.01,2013-11-03 20:20:00,
2013-11-03 14:25:00,71.5,32.8,30.08,ESE,122,1.0,10.0,24,0.00,,CLR,0.00,VWS V14.01,2013-11-03 20:25:00,
2013-11-03 14:30:00,71.3,34.7,30.08,SE,132,4.0,7.0,26,0.00,,CLR,0.00,VWS V14.01,2013-11-03 20:30:00,
2013-11-03 14:35:00,71.6,32.9,30.08,ESE,105,1.0,11.0,24,0.00,,CLR,0.00,VWS V14.01,2013-11-03 20:35:00,
2013-11-03 14:40:00,71.8,34.1,30.08,SE,130,0.0,6.0,25,0.00,,CLR,0.00,VWS V14.01,2013-11-03 20:40:00,
2013-11-03 14:45:00,72.5,34.7,30.08,East,99,1.0,6.0,25,0.00,,CLR,0.00,VWS V14.01,2013-11-03 20:45:00,
2013-11-03 14:50:00,72.7,34.9,30.08,SE,144,5.0,5.0,25,0.00,,CLR,0.00,VWS V14.01,2013-11-03 20:50:00,
2013-11-03 14:55:00,72.8,35.0,30.08,SE,133,0.0,5.0,25,0.00,,CLR,0.00,VWS V14.01,2013-11-03 20:55:00,
2013-11-03 15:00:00,73.3,35.4,30.08,SSE,160,2.0,5.0,25,0.00,,CLR,0.00,VWS V14.01,2013-11-03 21:00:00,
2013-11-03 15:05:00,72.8,35.0,30.08,SE,137,0.0,9.0,25,0.00,,CLR,0.00,VWS V14.01,2013-11-03 21:05:00,
2013-11-03 15:10:00,72.8,36.0,30.08,SE,128,0.0,5.0,26,0.00,,CLR,0.00,VWS V14.01,2013-11-03 21:10:00,
2013-11-03 15:15:00,72.8,36.0,30.08,SE,134,5.0,9.0,26,0.00,,CLR,0.00,VWS V14.01,2013-11-03 21:15:00,
2013-11-03 15:20:00,72.5,36.7,30.08,SE,128,0.0,10.0,27,0.00,,CLR,0.00,VWS V14.01,2013-11-03 21:20:00,
2013-11-03 15:25:00,73.0,37.1,30.07,SSE,155,4.0,10.0,27,0.00,,CLR,0.00,VWS V14.01,2013-11-03 21:25:00,
2013-11-03 15:30:00,72.8,36.9,30.07,SE,136,3.0,7.0,27,0.00,,CLR,0.00,VWS V14.01,2013-11-03 21:30:00,
2013-11-03 15:35:00,73.2,37.2,30.07,ESE,113,0.0,7.0,27,0.00,,CLR,0.00,VWS V14.01,2013-11-03 21:35:00,
2013-11-03 15:40:00,73.0,37.1,30.07,ESE,122,0.0,7.0,27,0.00,,CLR,0.00,VWS V14.01,2013-11-03 21:40:00,
2013-11-03 15:45:00,73.0,37.1,30.07,SE,128,0.0,7.0,27,0.00,,CLR,0.00,VWS V14.01,2013-11-03 21:45:00,
2013-11-03 15:50:00,73.5,37.5,30.07,SSW,194,0.0,4.0,27,0.00,,CLR,0.00,VWS V14.01,2013-11-03 21:50:00,
2013-11-03 15:55:00,73.5,38.4,30.07,SE,136,4.0,5.0,28,0.00,,CLR,0.00,VWS V14.01,2013-11-03 21:55:00,
2013-11-03 16:00:00,73.3,37.3,30.07,SSE,154,6.0,6.0,27,0.00,,CLR,0.00,VWS V14.01,2013-11-03 22:00:00,
2013-11-03 16:05:00,72.8,36.9,30.07,SSE,153,3.0,7.0,27,0.00,,CLR,0.00,VWS V14.01,2013-11-03 22:05:00,
2013-11-03 16:10:00,72.1,38.1,30.07,SE,128,7.0,9.0,29,0.00,,CLR,0.00,VWS V14.01,2013-11-03 22:10:00,
2013-11-03 16:15:00,71.6,38.6,30.07,SE,135,2.0,9.0,30,0.00,,CLR,0.00,VWS V14.01,2013-11-03 22:15:00,
2013-11-03 16:20:00,71.5,39.3,30.07,East,80,0.0,6.0,31,0.00,,CLR,0.00,VWS V14.01,2013-11-03 22:20:00,
2013-11-03 16:25:00,71.6,39.4,30.07,SSE,163,3.0,6.0,31,0.00,,CLR,0.00,VWS V14.01,2013-11-03 22:25:00,
2013-11-03 16:30:00,72.1,39.8,30.07,SSE,167,3.0,4.0,31,0.00,,CLR,0.00,VWS V14.01,2013-11-03 22:30:00,
2013-11-03 16:35:00,72.5,41.8,30.07,ESE,103,3.0,5.0,33,0.00,,CLR,0.00,VWS V14.01,2013-11-03 22:35:00,
2013-11-03 16:40:00,72.5,42.6,30.06,East,93,2.0,5.0,34,0.00,,CLR,0.00,VWS V14.01,2013-11-03 22:40:00,
2013-11-03 16:45:00,72.1,42.2,30.06,SE,128,2.0,9.0,34,0.00,,CLR,0.00,VWS V14.01,2013-11-03 22:45:00,
2013-11-03 16:50:00,72.0,42.9,30.06,SE,132,2.0,7.0,35,0.00,,CLR,0.00,VWS V14.01,2013-11-03 22:50:00,
2013-11-03 16:55:00,71.5,42.4,30.06,SE,126,6.0,7.0,35,0.00,,CLR,0.00,VWS V14.01,2013-11-03 22:55:00,
2013-11-03 17:00:00,71.1,43.5,30.06,ESE,122,0.0,4.0,37,0.00,,CLR,0.00,VWS V14.01,2013-11-03 23:00:00,
2013-11-03 17:05:00,70.6,43.1,30.06,ESE,123,2.0,6.0,37,0.00,,CLR,0.00,VWS V14.01,2013-11-03 23:05:00,
2013-11-03 17:10:00,70.4,43.6,30.07,SE,126,0.0,4.0,38,0.00,,CLR,0.00,VWS V14.01,2013-11-03 23:10:00,
2013-11-03 17:15:00,70.1,44.0,30.07,ESE,119,0.0,4.0,39,0.00,,CLR,0.00,VWS V14.01,2013-11-03 23:15:00,
2013-11-03 17:20:00,69.8,44.4,30.07,ESE,117,0.0,5.0,40,0.00,,CLR,0.00,VWS V14.01,2013-11-03 23:20:00,
2013-11-03 17:25:00,69.6,44.2,30.07,ESE,116,0.0,5.0,40,0.00,,CLR,0.00,VWS V14.01,2013-11-03 23:25:00,
2013-11-03 17:30:00,69.1,44.4,30.07,ESE,115,0.0,2.0,41,0.00,,CLR,0.00,VWS V14.01,2013-11-03 23:30:00,
2013-11-03 17:35:00,68.8,44.8,30.07,ESE,115,0.0,2.0,42,0.00,,CLR,0.00,VWS V14.01,2013-11-03 23:35:00,
2013-11-03 17:40:00,68.4,44.4,30.07,ESE,115,0.0,0.0,42,0.00,,CLR,0.00,VWS V14.01,2013-11-03 23:40:00,
2013-11-03 17:45:00,68.3,45.6,30.07,ESE,115,0.0,0.0,44,0.00,,CLR,0.00,VWS V14.01,2013-11-03 23:45:00,
2013-11-03 17:50:00,67.9,45.2,30.07,ESE,115,0.0,0.0,44,0.00,,CLR,0.00,VWS V14.01,2013-11-03 23:50:00,
2013-11-03 17:55:00,67.8,45.7,30.08,ESE,115,0.0,0.0,45,0.00,,CLR,0.00,VWS V14.01,2013-11-03 23:55:00,
2013-11-03 18:00:00,67.4,45.3,30.08,ESE,115,3.0,3.0,45,0.00,,CLR,0.00,VWS V14.01,2013-11-04 00:00:00,
2013-11-03 18:05:00,67.4,45.3,30.08,ESE,115,0.0,3.0,45,0.00,,CLR,0.00,VWS V14.01,2013-11-04 00:05:00,
2013-11-03 18:10:00,67.3,45.8,30.09,ESE,115,0.0,0.0,46,0.00,,CLR,0.00,VWS V14.01,2013-11-04 00:10:00,
2013-11-03 18:15:00,67.1,45.1,30.09,ESE,115,0.0,0.0,45,0.00,,CLR,0.00,VWS V14.01,2013-11-04 00:15:00,
2013-11-03 18:20:00,66.9,45.5,30.09,ESE,115,0.0,0.0,46,0.00,,CLR,0.00,VWS V14.01,2013-11-04 00:20:00,
2013-11-03 18:25:00,66.9,45.5,30.09,ESE,115,0.0,0.0,46,0.00,,CLR,0.00,VWS V14.01,2013-11-04 00:25:00,
2013-11-03 18:30:00,66.8,45.4,30.09,ESE,105,3.0,3.0,46,0.00,,CLR,0.00,VWS V14.01,2013-11-04 00:30:00,
2013-11-03 18:35:00,66.8,45.4,30.09,ESE,113,0.0,5.0,46,0.00,,CLR,0.00,VWS V14.01,2013-11-04 00:35:00,
2013-11-03 18:40:00,66.8,45.9,30.08,ESE,112,2.0,3.0,47,0.00,,CLR,0.00,VWS V14.01,2013-11-04 00:40:00,
2013-11-03 18:45:00,66.6,45.8,30.08,ESE,113,0.0,3.0,47,0.00,,CLR,0.00,VWS V14.01,2013-11-04 00:45:00,
2013-11-03 18:50:00,66.4,46.1,30.08,ESE,113,0.0,2.0,48,0.00,,CLR,0.00,VWS V14.01,2013-11-04 00:50:00,
2013-11-03 18:55:00,66.3,46.6,30.09,ESE,113,0.0,3.0,49,0.00,,FEW120,0.00,VWS V14.01,2013-11-04 00:55:00,
2013-11-03 19:00:00,66.0,46.8,30.09,ESE,117,0.0,3.0,50,0.00,,FEW120,0.00,VWS V14.01,2013-11-04 01:00:00,
2013-11-03 19:05:00,65.6,47.0,30.09,ESE,117,0.0,3.0,51,0.00,,FEW120,0.00,VWS V14.01,2013-11-04 01:05:00,
2013-11-03 19:10:00,65.5,47.4,30.09,ESE,116,2.0,3.0,52,0.00,,FEW120,0.00,VWS V14.01,2013-11-04 01:10:00,
2013-11-03 19:15:00,65.2,47.7,30.09,ESE,116,0.0,3.0,53,0.00,,FEW120,0.00,VWS V14.01,2013-11-04 01:15:00,
2013-11-03 19:20:00,65.0,48.0,30.09,ESE,108,1.0,6.0,54,0.00,,FEW120,0.00,VWS V14.01,2013-11-04 01:20:00,
2013-11-03 19:25:00,64.8,48.3,30.10,ESE,108,3.0,6.0,55,0.00,,FEW120,0.00,VWS V14.01,2013-11-04 01:25:00,
2013-11-03 19:30:00,64.7,48.7,30.10,ESE,115,0.0,3.0,56,0.00,,FEW120,0.00,VWS V14.01,2013-11-04 01:30:00,
2013-11-03 19:35:00,64.3,48.8,30.10,ESE,115,0.0,3.0,57,0.00,,FEW120,0.00,VWS V14.01,2013-11-04 01:35:00,
2013-11-03 19:40:00,64.0,48.9,30.10,ESE,119,1.0,4.0,58,0.00,,FEW120,0.00,VWS V14.01,2013-11-04 01:40:00,
2013-11-03 19:45:00,63.9,49.3,30.10,ESE,119,1.0,4.0,59,0.00,,FEW120,0.00,VWS V14.01,2013-11-04 01:45:00,
2013-11-03 19:50:00,63.7,49.6,30.10,ESE,119,0.0,1.0,60,0.00,,FEW120,0.00,VWS V14.01,2013-11-04 01:50:00,
2013-11-03 19:55:00,63.4,49.7,30.10,ESE,119,1.0,4.0,61,0.00,,SCT120,0.00,VWS V14.01,2013-11-04 01:55:00,
2013-11-03 20:00:00,63.1,49.5,30.10,ESE,118,0.0,1.0,61,0.00,,SCT120,0.00,VWS V14.01,2013-11-04 02:00:00,
2013-11-03 20:05:00,62.9,49.7,30.10,ESE,110,0.0,5.0,62,0.00,,SCT120,0.00,VWS V14.01,2013-11-04 02:05:00,
2013-11-03 20:10:00,62.7,49.9,30.10,ESE,120,2.0,6.0,63,0.00,,SCT120,0.00,VWS V14.01,2013-11-04 02:10:00,
2013-11-03 20:15:00,62.7,50.4,30.10,ESE,120,0.0,6.0,64,0.00,,SCT120,0.00,VWS V14.01,2013-11-04 02:15:00,
2013-11-03 20:20:00,62.6,50.3,30.10,ESE,120,0.0,0.0,64,0.00,,SCT120,0.00,VWS V14.01,2013-11-04 02:20:00,
2013-11-03 20:25:00,62.4,50.5,30.11,ESE,120,0.0,0.0,65,0.00,,SCT120,0.00,VWS V14.01,2013-11-04 02:25:00,
2013-11-03 20:30:00,62.3,50.8,30.11,ESE,120,0.0,0.0,66,0.00,,SCT120,0.00,VWS V14.01,2013-11-04 02:30:00,
2013-11-03 20:35:00,62.1,50.6,30.11,ESE,120,0.0,0.0,66,0.00,,SCT120,0.00,VWS V14.01,2013-11-04 02:35:00,
2013-11-03 20:40:00,62.0,50.9,30.10,ESE,120,0.0,0.0,67,0.00,,SCT120,0.00,VWS V14.01,2013-11-04 02:40:00,
2013-11-03 20:45:00,61.8,51.1,30.10,ESE,120,0.0,0.0,68,0.00,,SCT120,0.00,VWS V14.01,2013-11-04 02:45:00,
2013-11-03 20:50:00,61.6,51.0,30.10,ESE,120,0.0,0.0,68,0.00,,SCT120,0.00,VWS V14.01,2013-11-04 02:50:00,
2013-11-03 20:55:00,61.6,51.3,30.11,ESE,120,0.0,2.0,69,0.00,,FEW110,0.00,VWS V14.01,2013-11-04 02:55:00,
2013-11-03 21:00:00,61.5,51.2,30.11,ESE,120,0.0,0.0,69,0.00,,FEW110,0.00,VWS V14.01,2013-11-04 03:00:00,
2013-11-03 21:05:00,61.3,51.5,30.11,ESE,120,1.0,4.0,70,0.00,,FEW110,0.00,VWS V14.01,2013-11-04 03:05:00,
2013-11-03 21:10:00,61.3,51.5,30.10,ESE,118,2.0,6.0,70,0.00,,FEW110,0.00,VWS V14.01,2013-11-04 03:10:00,
2013-11-03 21:15:00,61.3,51.5,30.10,ESE,108,0.0,6.0,70,0.00,,FEW110,0.00,VWS V14.01,2013-11-04 03:15:00,
2013-11-03 21:20:00,61.5,51.6,30.10,ESE,108,0.0,3.0,70,0.00,,FEW110,0.00,VWS V14.01,2013-11-04 03:20:00,
2013-11-03 21:25:00,61.5,51.6,30.10,ESE,112,2.0,6.0,70,0.00,,FEW110,0.00,VWS V14.01,2013-11-04 03:25:00,
2013-11-03 21:30:00,61.6,51.7,30.10,SE,131,5.0,7.0,70,0.00,,FEW110,0.00,VWS V14.01,2013-11-04 03:30:00,
2013-11-03 21:35:00,61.5,52.0,30.10,SE,128,2.0,7.0,71,0.00,,FEW110,0.00,VWS V14.01,2013-11-04 03:35:00,
2013-11-03 21:40:00,61.5,52.0,30.10,ESE,122,0.0,6.0,71,0.00,,FEW110,0.00,VWS V14.01,2013-11-04 03:40:00,
2013-11-03 21:45:00,61.5,52.4,30.10,SE,134,2.0,6.0,72,0.00,,FEW110,0.00,VWS V14.01,2013-11-04 03:45:00,
2013-11-03 21:50:00,61.6,52.5,30.10,SE,138,3.0,5.0,72,0.00,,FEW110,0.00,VWS V14.01,2013-11-04 03:50:00,
2013-11-03 21:55:00,61.8,52.7,30.09,SE,132,7.0,7.0,72,0.00,,FEW110,0.00,VWS V14.01,2013-11-04 03:55:00,
2013-11-03 22:00:00,62.0,52.9,30.09,ESE,111,3.0,4.0,72,0.00,,CLR,0.00,VWS V14.01,2013-11-04 04:00:00,
2013-11-03 22:05:00,62.3,53.2,30.09,ESE,122,0.0,7.0,72,0.00,,CLR,0.00,VWS V14.01,2013-11-04 04:05:00,
2013-11-03 22:10:00,62.4,53.3,30.08,ESE,119,0.0,6.0,72,0.00,,CLR,0.00,VWS V14.01,2013-11-04 04:10:00,
2013-11-03 22:15:00,62.7,53.2,30.08,ESE,119,5.0,10.0,71,0.00,,CLR,0.00,VWS V14.01,2013-11-04 04:15:00,
2013-11-03 22:20:00,63.1,53.2,30.08,ESE,121,2.0,7.0,70,0.00,,CLR,0.00,VWS V14.01,2013-11-04 04:20:00,
2013-11-03 22:25:00,63.2,53.3,30.08,SSE,166,5.0,10.0,70,0.00,,CLR,0.00,VWS V14.01,2013-11-04 04:25:00,
2013-11-03 22:30:00,63.2,53.3,30.08,SE,131,5.0,12.0,70,0.00,,CLR,0.00,VWS V14.01,2013-11-04 04:30:00,
2013-11-03 22:35:00,63.2,53.3,30.08,SSW,194,4.0,12.0,70,0.00,,CLR,0.00,VWS V14.01,2013-11-04 04:35:00,
2013-11-03 22:40:00,63.1,53.2,30.07,ESE,121,3.0,12.0,70,0.00,,CLR,0.00,VWS V14.01,2013-11-04 04:40:00,
2013-11-03 22:45:00,63.1,53.2,30.07,SE,133,3.0,15.0,70,0.00,,CLR,0.00,VWS V14.01,2013-11-04 04:45:00,
2013-11-03 22:50:00,63.1,53.2,30.07,SE,138,4.0,4.0,70,0.00,,CLR,0.00,VWS V14.01,2013-11-04 04:50:00,
2013-11-03 22:55:00,62.7,52.8,30.07,ENE,67,6.0,13.0,70,0.00,,CLR,0.00,VWS V14.01,2013-11-04 04:55:00,
2013-11-03 23:00:00,62.6,52.7,30.07,SE,125,7.0,11.0,70,0.00,,FEW120,0.00,VWS V14.01,2013-11-04 05:00:00,
2013-11-03 23:01:00,62.6,52.7,30.07,SE,144,3.0,11.0,70,0.00,,FEW120,0.00,VWS V14.01,2013-11-04 05:01:00,
2013-11-03 23:02:00,62.6,52.7,30.07,SE,137,10.0,11.0,70,0.00,,FEW120,0.00,VWS V14.01,2013-11-04 05:02:00,
2013-11-03 23:07:00,62.4,52.5,30.07,SE,134,7.0,11.0,70,0.00,,FEW120,0.00,VWS V14.01,2013-11-04 05:07:00,
2013-11-03 23:12:00,62.3,52.8,30.07,SE,140,6.0,11.0,71,0.00,,FEW120,0.00,VWS V14.01,2013-11-04 05:12:00,
2013-11-03 23:17:00,62.1,52.6,30.07,SE,126,7.0,7.0,71,0.00,,FEW120,0.00,VWS V14.01,2013-11-04 05:17:00,
2013-11-03 23:22:00,62.1,53.0,30.08,ESE,115,3.0,9.0,72,0.00,,FEW120,0.00,VWS V14.01,2013-11-04 05:22:00,
2013-11-03 23:27:00,62.0,52.9,30.08,East,94,5.0,8.0,72,0.00,,FEW120,0.00,VWS V14.01,2013-11-04 05:27:00,
2013-11-03 23:32:00,62.0,52.9,30.08,ESE,122,6.0,10.0,72,0.00,,FEW120,0.00,VWS V14.01,2013-11-04 05:32:00,
2013-11-03 23:37:00,61.8,53.1,30.08,SE,130,3.0,3.0,73,0.00,,FEW120,0.00,VWS V14.01,2013-11-04 05:37:00,
2013-11-03 23:42:00,61.8,53.1,30.08,SE,136,4.0,8.0,73,0.00,,FEW120,0.00,VWS V14.01,2013-11-04 05:42:00,
2013-11-03 23:47:00,61.8,53.1,30.08,SSE,155,7.0,7.0,73,0.00,,FEW120,0.00,VWS V14.01,2013-11-04 05:47:00,
2013-11-03 23:52:00,61.6,53.2,30.08,SE,129,6.0,7.0,74,0.00,,FEW120,0.00,VWS V14.01,2013-11-04 05:52:00,
2013-11-03 23:57:00,61.5,53.2,30.08,SE,131,5.0,5.0,74,0.00,,OVC100,0.00,VWS V14.01,2013-11-04 05:57:00,